FW3899 Weather Reports


time (UTC)temp
C
wind
direction
speed
KPH
gust
KPH
rain 1hr
cm
rain 24hr
cm
rain mn
cm
humidity
%
barometer
mb
20260506011541 10 288 8.0 14.5 0.00 0.08 0.00 90 1007.9
20260506010037 10 220 8.0 12.9 0.00 0.08 0.00 93 1008.0
20260506004541 9 235 1.6 4.8 0.00 0.08 0.00 91 1008.2
20260506003033 9 237 3.2 6.4 0.00 0.08 0.00 91 1008.3
20260506001534 10 237 4.8 9.7 0.00 0.08 0.00 90 1008.4
20260506000039 10 218 6.4 14.5 0.00 0.08 0.00 90 1008.5
20260505234530 10 252 8.0 16.1 0.00 0.08 0.00 91 1008.5
20260505233027 10 255 6.4 11.3 0.00 0.08 0.00 92 1008.6
20260505231524 10 232 4.8 12.9 0.00 0.08 0.00 94 1008.7
20260505230020 9 201 4.8 8.0 0.00 0.08 0.00 93 1008.9
20260505224519 9 307 1.6 4.8 0.00 0.08 0.00 94 1008.9
20260505223014 9 220 0.0 6.4 0.00 0.08 0.00 94 1008.8
20260505221513 9 199 3.2 6.4 0.00 0.08 0.00 93 1008.8
20260505220024 9 196 3.2 6.4 0.00 0.08 0.08 93 1009.0
20260505214516 9 193 4.8 6.4 0.00 0.08 0.08 92 1009.1
20260505213010 10 201 1.6 4.8 0.00 0.08 0.08 92 1009.2
20260505211509 10 207 3.2 4.8 0.00 0.08 0.08 92 1009.2
20260505210009 10 204 3.2 6.4 0.00 0.08 0.08 93 1009.2
20260505204515 10 197 4.8 8.0 0.00 0.08 0.08 93 1009.3
20260505203008 10 192 4.8 6.4 0.00 0.08 0.08 93 1009.3
20260505201507 10 208 4.8 9.7 0.00 0.08 0.08 93 1009.0
20260505200009 10 202 4.8 9.7 0.00 0.08 0.08 93 1009.1
20260505194507 10 196 4.8 8.0 0.00 0.08 0.08 92 1009.0
20260505193017 10 217 6.4 9.7 0.00 0.08 0.08 92 1008.9
20260505191504 10 203 4.8 8.0 0.00 0.08 0.08 90 1008.6
20260505190011 11 178 1.6 6.4 0.00 0.08 0.08 90 1008.6
20260505184503 11 192 4.8 9.7 0.00 0.08 0.08 90 1008.5
20260505183004 12 201 6.4 14.5 0.00 0.08 0.08 90 1008.5
20260505181501 12 200 6.4 16.1 0.00 0.08 0.08 90 1008.6
20260505180001 12 179 1.6 9.7 0.00 0.08 0.08 91 1008.7
20260505174601 11 131 4.8 9.7 0.00 0.08 0.08 92 1008.6
20260505173101 11 142 4.8 12.9 0.00 0.08 0.08 92 1008.7
20260505171559 11 142 4.8 14.5 0.05 0.08 0.08 92 1008.4
20260505170109 11 180 3.2 8.0 0.05 0.08 0.08 93 1008.3
20260505164559 11 265 3.2 11.3 0.05 0.13 0.08 92 1008.1
20260505163107 11 264 6.4 16.1 0.05 0.10 0.05 92 1008.0
20260505161557 11 259 11.3 20.9 0.03 0.08 0.05 89 1008.2
20260505153107 12 256 17.7 35.4 0.03 0.08 0.03 85 1007.9
20260505151555 12 241 22.5 33.8 0.03 0.08 0.03 83 1007.8
20260505150111 14 272 24.1 43.5 0.00 0.05 0.00 79 1007.7
20260505124540 15 230 9.7 17.7 0.00 0.05 0.00 84 1007.9
20260505123100 14 282 8.0 14.5 0.00 0.05 0.00 86 1007.8
20260505121535 14 347 1.6 8.0 0.00 0.05 0.00 88 1007.7
20260505120045 13 259 6.4 11.3 0.00 0.05 0.00 87 1007.9
20260505114541 13 274 4.8 6.4 0.00 0.05 0.00 87 1007.9
20260505113028 13 302 3.2 11.3 0.00 0.05 0.00 88 1007.9
20260505111527 13 317 6.4 11.3 0.00 0.05 0.00 88 1007.8
20260505101518 12 232 4.8 8.0 0.00 0.05 0.00 89 1008.2
20260505100016 12 134 0.0 0.0 0.00 0.05 0.00 90 1008.2
20260505094513 12 142 0.0 0.0 0.00 0.05 0.00 90 1008.2
20260505093012 11 142 0.0 1.6 0.00 0.05 0.00 91 1008.1
20260505091509 11 59 1.6 4.8 0.00 0.05 0.00 90 1008.0
20260505090009 11 162 1.6 4.8 0.00 0.05 0.00 90 1008.2
20260505084509 11 221 3.2 9.7 0.00 0.05 0.00 91 1008.2
20260505083006 11 219 3.2 9.7 0.00 0.05 0.00 92 1008.3
20260505081504 11 284 6.4 11.3 0.00 0.05 0.00 93 1008.3
20260505080059 11 312 1.6 6.4 0.00 0.05 0.00 93 1008.4
20260505074555 10 275 8.0 11.3 0.00 0.05 0.00 91 1008.7
20260505073057 11 219 0.0 6.4 0.00 0.05 0.00 91 1008.8
20260505071548 10 308 1.6 4.8 0.00 0.05 0.00 91 1008.9
20260505070053 10 322 0.0 4.8 0.00 0.05 0.00 91 1009.0
20260505064545 10 211 4.8 8.0 0.00 0.05 0.00 91 1009.0
20260505063045 10 278 8.0 16.1 0.00 0.05 0.00 91 1009.0
20260505061542 10 257 4.8 20.9 0.00 0.05 0.00 92 1009.1
20260505060038 10 235 6.4 14.5 0.00 0.05 0.00 94 1009.1
20260505054535 10 282 3.2 8.0 0.00 0.05 0.00 96 1009.0
20260505053032 9 67 0.0 4.8 0.00 0.05 0.00 95 1009.0
20260505051535 9 355 1.6 8.0 0.00 0.05 0.00 95 1008.9
20260505041538 8 228 0.0 0.0 0.00 0.05 0.00 95 1009.1
20260505040021 8 228 0.0 0.0 0.00 0.05 0.00 96 1009.0
20260505034519 8 212 0.0 0.0 0.00 0.05 0.00 96 1009.0
20260505033019 8 211 0.0 0.0 0.00 0.05 0.00 96 1009.0
20260505030015 7 212 3.2 4.8 0.00 0.05 0.00 95 1009.2
20260505024513 7 212 0.0 4.8 0.00 0.05 0.00 95 1009.4
20260505023013 7 212 0.0 3.2 0.00 0.05 0.00 95 1009.4
20260505021510 7 212 1.6 3.2 0.00 0.05 0.00 94 1009.6
20260505020016 7 212 0.0 6.4 0.00 0.05 0.00 95 1009.8
20260505014510 8 199 0.0 4.8 0.00 0.05 0.00 95 1009.7
20260505013008 8 205 0.0 0.0 0.00 0.05 0.00 95 1009.7